North Bend, OR

2:26 AM PDT on April 24, 2018 (GMT -0700)
North Bend Municipal

Weather History for KOTH - July, 2013

Change the Weather History Date:

Saturday, July 20, 2013

  Actual Average Record
Temperature  
Mean Temperature 59 °F 59 °F  
Max Temperature 64 °F 65 °F 81 °F (1972)
Min Temperature 54 °F 53 °F 40 °F (1919)
Degree Days  
Heating Degree Days 6 6  
Month to date heating degree days 12 131  
Since 1 June heating degree days 182 398  
Since 1 July heating degree days 12 131  
Cooling Degree Days 0 0  
Month to date cooling degree days 0 0  
Year to date cooling degree days 4 0  
Since 1 June cooling degree days 0 0  
Growing Degree Days 8 (Base 50)    
Moisture  
Dew Point 53 °F    
Average Humidity 85    
Maximum Humidity 100    
Minimum Humidity 67    
Precipitation  
Precipitation 0.00 in 0.02 in 0.10 in (1993)
Month to date precipitation 0.00 0.38  
Year to date precipitation 17.49 36.50  
Sea Level Pressure  
Sea Level Pressure 30.06 in    
Wind  
Wind Speed 20 mph (North)    
Max Wind Speed 31 mph    
Max Gust Speed 41 mph    
Visibility 10 miles    
Events      
T = Trace of Precipitation, MM = Missing Value Source: NWS Daily Summary

Daily Weather History Graph

Daily Weather History Graph

Search for Another Location

Airport or City:

Astronomy

Jul. 20, 2013 Rise Set
Actual Time 5:54 AM PDT 8:51 PM PDT
Civil Twilight 5:21 AM PDT 9:25 PM PDT
Nautical Twilight 4:37 AM PDT 10:08 PM PDT
Astronomical Twilight 3:47 AM PDT 10:58 PM PDT
Moon 6:59 PM PDT (7/20) 3:41 AM PDT (7/20)
Length of Visible Light 16h 04m
Length of Day
14h 56m
Waxing Gibbous, 94% of the Moon is Illuminated
Jul 20
Waxing Gibbous
Jul 22
Full
Jul 29
Last Quarter
Aug 6
New
Aug 14
First Quarter

Hourly Weather History & Observations

Time (PDT) Temp. Dew Point Humidity Pressure Visibility Wind Dir Wind Speed Gust Speed Precip Events Conditions
12:15 AM 55.4 °F 51.8 °F 88% 30.13 in 10.0 mi North 16.1 mph 24.2 mph N/A   Overcast
12:35 AM 55.4 °F 51.8 °F 88% 30.12 in 10.0 mi North 18.4 mph - N/A   Overcast
12:55 AM 55.4 °F 51.8 °F 88% 30.12 in 10.0 mi North 15.0 mph - N/A   Overcast
1:15 AM 55.4 °F 51.8 °F 88% 30.12 in 10.0 mi North 18.4 mph 23.0 mph N/A   Overcast
1:35 AM 55.4 °F 51.8 °F 88% 30.12 in 10.0 mi North 15.0 mph 21.9 mph N/A   Overcast
1:55 AM 55.4 °F 51.8 °F 88% 30.12 in 10.0 mi North 15.0 mph 20.7 mph N/A   Overcast
2:15 AM 55.4 °F 51.8 °F 88% 30.11 in 10.0 mi North 16.1 mph 24.2 mph N/A   Overcast
2:35 AM 55.4 °F 51.8 °F 88% 30.11 in 10.0 mi North 17.3 mph 23.0 mph N/A   Overcast
2:55 AM 55.4 °F 51.8 °F 88% 30.11 in 10.0 mi North 17.3 mph 20.7 mph N/A   Overcast
3:15 AM 55.4 °F 51.8 °F 88% 30.10 in 10.0 mi North 18.4 mph 25.3 mph N/A   Overcast
3:35 AM 55.4 °F 51.8 °F 88% 30.10 in 10.0 mi North 17.3 mph 23.0 mph N/A   Overcast
3:55 AM 55.4 °F 51.8 °F 88% 30.10 in 10.0 mi North 19.6 mph 26.5 mph N/A   Overcast
4:15 AM 55.4 °F 53.6 °F 94% 30.10 in 10.0 mi North 18.4 mph 25.3 mph N/A   Overcast
4:35 AM 55.4 °F 53.6 °F 94% 30.10 in 10.0 mi North 19.6 mph 25.3 mph N/A   Overcast
4:55 AM 55.4 °F 51.8 °F 88% 30.09 in 10.0 mi North 17.3 mph 24.2 mph N/A   Overcast
5:15 AM 55.4 °F 53.6 °F 94% 30.09 in 10.0 mi North 15.0 mph 19.6 mph N/A   Overcast
5:35 AM 55.4 °F 53.6 °F 94% 30.09 in 10.0 mi North 12.7 mph - N/A   Overcast
5:55 AM 55.4 °F 53.6 °F 94% 30.09 in 10.0 mi NNE 6.9 mph - N/A   Overcast
6:15 AM 55.4 °F 53.6 °F 94% 30.09 in 10.0 mi NNE 13.8 mph 20.7 mph N/A   Overcast
6:35 AM 55.4 °F 51.8 °F 88% 30.09 in 10.0 mi North 12.7 mph - N/A   Overcast
6:55 AM 55.4 °F 51.8 °F 88% 30.09 in 10.0 mi North 13.8 mph - N/A   Overcast
7:15 AM 55.4 °F 53.6 °F 94% 30.09 in 10.0 mi North 5.8 mph - N/A   Overcast
7:35 AM 55.4 °F 51.8 °F 88% 30.10 in 10.0 mi North 11.5 mph - N/A   Overcast
7:55 AM 55.4 °F 53.6 °F 94% 30.10 in 10.0 mi NNE 10.4 mph - N/A   Overcast
8:15 AM 55.4 °F 51.8 °F 88% 30.10 in 10.0 mi North 10.4 mph - N/A   Overcast
8:35 AM 55.4 °F 51.8 °F 88% 30.10 in 10.0 mi North 13.8 mph - N/A   Overcast
8:55 AM 57.2 °F 53.6 °F 88% 30.10 in 10.0 mi North 12.7 mph 16.1 mph N/A   Overcast
9:15 AM 57.2 °F 51.8 °F 82% 30.10 in 10.0 mi North 16.1 mph 24.2 mph N/A   Overcast
9:35 AM 57.2 °F 53.6 °F 88% 30.10 in 10.0 mi North 15.0 mph - N/A   Overcast
9:55 AM 57.2 °F 53.6 °F 88% 30.10 in 10.0 mi North 18.4 mph 23.0 mph N/A   Overcast
10:15 AM 59.0 °F 53.6 °F 82% 30.09 in 10.0 mi North 15.0 mph 18.4 mph N/A   Mostly Cloudy
10:35 AM 59.0 °F 53.6 °F 82% 30.09 in 10.0 mi North 20.7 mph 26.5 mph N/A   Overcast
10:55 AM 60.8 °F 53.6 °F 77% 30.08 in 10.0 mi North 16.1 mph - N/A   Mostly Cloudy
11:15 AM 62.6 °F 53.6 °F 72% 30.08 in 10.0 mi North 15.0 mph - N/A   Mostly Cloudy
11:35 AM 62.6 °F 53.6 °F 72% 30.08 in 10.0 mi North 23.0 mph 27.6 mph N/A   Mostly Cloudy
11:55 AM 60.8 °F 53.6 °F 77% 30.08 in 10.0 mi North 21.9 mph 29.9 mph N/A   Overcast
12:15 PM 62.6 °F 53.6 °F 72% 30.08 in 10.0 mi North 21.9 mph 27.6 mph N/A   Mostly Cloudy
12:35 PM 62.6 °F 53.6 °F 72% 30.07 in 10.0 mi North 20.7 mph 27.6 mph N/A   Partly Cloudy
12:55 PM 62.6 °F 53.6 °F 72% 30.06 in 10.0 mi North 20.7 mph 29.9 mph N/A   Scattered Clouds
1:15 PM 64.4 °F 53.6 °F 68% 30.06 in 10.0 mi North 20.7 mph 27.6 mph N/A   Scattered Clouds
1:35 PM 62.6 °F 53.6 °F 72% 30.06 in 10.0 mi North 27.6 mph 34.5 mph N/A   Scattered Clouds
1:55 PM 62.6 °F 53.6 °F 72% 30.05 in 10.0 mi North 25.3 mph 31.1 mph N/A   Clear
2:15 PM 62.6 °F 53.6 °F 72% 30.04 in 10.0 mi North 31.1 mph 36.8 mph N/A   Clear
2:35 PM 62.6 °F 51.8 °F 68% 30.04 in 10.0 mi North 27.6 mph 35.7 mph N/A   Clear
2:55 PM 62.6 °F 51.8 °F 68% 30.04 in 10.0 mi North 27.6 mph 36.8 mph N/A   Clear
3:15 PM 62.6 °F 53.6 °F 72% 30.03 in 10.0 mi North 26.5 mph 38.0 mph N/A   Clear
3:35 PM 62.6 °F 53.6 °F 72% 30.02 in 10.0 mi North 29.9 mph 36.8 mph N/A   Clear
3:55 PM 62.6 °F 53.6 °F 72% 30.02 in 10.0 mi North 29.9 mph 36.8 mph N/A   Clear
4:15 PM 62.6 °F 53.6 °F 72% 30.01 in 10.0 mi North 28.8 mph 41.4 mph N/A   Clear
4:35 PM 62.6 °F 53.6 °F 72% 30.00 in 10.0 mi North 27.6 mph 39.1 mph N/A   Clear
4:55 PM 60.8 °F 53.6 °F 77% 30.00 in 10.0 mi North 31.1 mph 41.4 mph N/A   Clear
5:15 PM 60.8 °F 53.6 °F 77% 30.00 in 10.0 mi North 31.1 mph 38.0 mph N/A   Clear
5:35 PM 60.8 °F 53.6 °F 77% 30.00 in 10.0 mi North 31.1 mph 40.3 mph N/A   Partly Cloudy
5:55 PM 60.8 °F 53.6 °F 77% 30.00 in 10.0 mi North 28.8 mph 35.7 mph N/A   Mostly Cloudy
6:15 PM 59.0 °F 53.6 °F 82% 30.00 in 10.0 mi North 25.3 mph 34.5 mph N/A   Scattered Clouds
6:35 PM 57.2 °F 53.6 °F 88% 30.00 in 10.0 mi North 28.8 mph 39.1 mph N/A   Overcast
6:55 PM 57.2 °F 53.6 °F 88% 29.99 in 10.0 mi North 27.6 mph 40.3 mph N/A   Mostly Cloudy
7:15 PM 57.2 °F 53.6 °F 88% 29.99 in 10.0 mi North 28.8 mph 34.5 mph N/A   Mostly Cloudy
7:35 PM 57.2 °F 53.6 °F 88% 29.99 in 10.0 mi North 27.6 mph 35.7 mph N/A   Mostly Cloudy
7:55 PM 57.2 °F 53.6 °F 88% 30.00 in 10.0 mi North 23.0 mph 36.8 mph N/A   Overcast
8:15 PM 57.2 °F 53.6 °F 88% 30.00 in 10.0 mi North 24.2 mph 31.1 mph N/A   Overcast
8:35 PM 57.2 °F 53.6 °F 88% 30.00 in 10.0 mi North 19.6 mph 31.1 mph N/A   Overcast
8:55 PM 55.4 °F 53.6 °F 94% 30.00 in 10.0 mi North 24.2 mph 34.5 mph N/A   Overcast
9:15 PM 55.4 °F 53.6 °F 94% 30.00 in 10.0 mi North 21.9 mph 34.5 mph N/A   Overcast
9:35 PM 55.4 °F 53.6 °F 94% 30.01 in 10.0 mi North 16.1 mph - N/A   Overcast
9:55 PM 55.4 °F 53.6 °F 94% 30.01 in 10.0 mi North 19.6 mph 23.0 mph N/A   Overcast
10:15 PM 55.4 °F 53.6 °F 94% 30.01 in 10.0 mi North 16.1 mph 23.0 mph N/A   Overcast
10:35 PM 53.6 °F 53.6 °F 100% 30.02 in 10.0 mi North 20.7 mph 27.6 mph N/A   Overcast
10:55 PM 53.6 °F 53.6 °F 100% 30.02 in 6.0 mi North 17.3 mph 31.1 mph N/A   Overcast
11:15 PM 53.6 °F 53.6 °F 100% 30.02 in 4.0 mi NNE 16.1 mph 25.3 mph N/A   Overcast
11:35 PM 53.6 °F 51.8 °F 94% 30.01 in 5.0 mi North 17.3 mph 24.2 mph N/A   Overcast
11:55 PM 53.6 °F 51.8 °F 94% 30.01 in 10.0 mi North 12.7 mph 24.2 mph N/A   Overcast